Wind_Speed
50 52 54 57 59 59 62 64 65 62 61 43 59 67 62 60 61 60 63 66 71 69 63 65 65 72 67 56 53 51 49 51 55 56 55 56 55 57 54 45 45 41 38 39
49 52 54 58 61 64 67 68 66 66 65 55 68 72 68 65 64 63 63 65 69 70 70 66 70 74 67 60 59 51 52 54 56 57 56 54 53 50 46 42 41 35 37 36
43 46 49 52 56 59 63 67 69 72 72 73 75 75 69 69 69 66 64 64 66 68 68 71 72 68 65 65 65 60 58 56 60 58 53 49 48 46 40 37 32 33 34 36
43 44 46 47 49 53 58 57 62 68 70 76 73 78 74 70 70 68 66 63 66 65 64 59 56 65 70 65 61 64 59 59 60 52 48 45 42 40 33 29 29 31 33 36
38 39 39 41 43 37 47 45 51 58 67 71 75 77 78 73 74 69 68 66 62 60 59 56 54 53 57 58 61 66 61 62 53 46 43 38 35 31 28 28 28 30 35 32
31 19 20 26 32 32 32 39 36 39 41 52 74 66 82 77 76 72 70 67 65 57 51 50 49 49 50 47 49 49 53 52 43 39 34 32 28 29 26 26 28 32 32 30
21 18 19 27 25 29 28 24 27 33 39 48 44 51 61 79 64 67 67 67 60 57 50 43 46 48 48 44 46 46 45 41 35 33 32 29 26 27 26 27 28 32 30 28
21 22 21 30 25 25 17 17 24 27 28 32 35 49 53 49 38 36 70 66 58 52 45 43 45 44 40 43 44 40 38 36 32 33 29 26 27 26 28 28 30 30 28 28
21 21 23 18 21 17 14 23 17 28 28 35 37 43 34 48 43 40 53 58 52 53 49 45 43 38 41 42 38 34 34 31 31 30 27 27 27 28 27 28 31 26 27 26
21 23 18 16 16 17 12 10 24 28 25 32 21 23 20 31 52 30 32 45 53 48 48 49 45 41 39 38 33 33 30 30 29 26 25 26 27 27 27 28 25 26 26 25
24 26 15 16 16 14 12 13 19 23 20 23 19 18 22 20 32 41 24 40 45 52 48 45 42 38 37 34 33 31 31 28 25 25 25 26 25 24 23 23 24 24 24 24
21 24 22 15 14 17 20 19 20 27 23 16 25 19 24 25 27 33 44 51 47 36 43 43 41 40 37 32 32 32 29 26 25 25 26 22 20 19 21 22 23 23 23 25
19 19 20 13 13 22 21 20 22 21 18 30 31 22 36 20 33 47 50 56 49 39 33 38 42 41 38 32 34 29 28 26 24 24 21 20 21 21 21 21 21 21 24 23
16 17 21 19 21 23 14 11 14 22 22 28 26 25 17 34 30 15 30 49 47 33 33 30 30 37 39 36 29 29 26 23 23 21 21 20 21 21 20 20 20 22 23 23
17 10 18 18 22 19 16 16 17 18 23 31 29 26 23 27 34 26 36 56 56 42 37 28 28 27 28 32 31 27 26 23 21 20 20 21 20 19 19 20 21 22 22 21
10 10 11 12 14 15 17 17 20 22 22 30 31 31 25 25 30 36 46 47 52 46 41 30 29 28 31 30 27 26 23 20 19 20 20 18 18 18 19 20 21 23 22 16
20 17 12 5 15 16 15 16 21 24 26 28 33 30 27 27 25 33 45 48 48 51 44 35 30 31 30 27 27 24 21 20 19 19 16 16 16 18 17 19 22 20 14 14
20 16 20 19 18 16 10 19 25 26 22 29 28 25 32 35 36 45 48 48 48 52 46 37 32 31 28 28 26 22 21 19 17 15 15 15 16 15 16 17 12 11 11 10
19 20 21 11 15 17 11 18 20 17 23 27 19 22 30 46 42 48 48 46 51 49 46 39 36 32 28 26 22 21 19 16 14 14 13 13 13 15 13 10 9 8 9 10
18 16 13 15 12 12 9 14 19 15 15 17 16 21 33 44 48 47 42 54 52 51 46 41 33 31 28 24 21 21 16 14 14 12 11 12 13 12 11 11 10 7 7 9
14 12 11 15 16 17 17 26 25 17 14 19 17 23 33 42 52 55 55 55 52 49 41 38 33 31 28 24 22 19 15 15 12 11 10 10 9 8 11 12 9 6 5 9
18 17 15 17 16 15 21 17 14 15 13 11 17 25 45 50 53 52 55 54 49 46 40 35 33 30 26 23 22 17 16 13 11 11 9 10 8 7 8 10 9 8 7 8
19 20 20 24 19 20 14 15 18 8 10 12 17 29 46 51 52 49 58 57 49 45 40 35 32 28 25 23 19 17 15 12 11 10 9 9 8 9 8 5 8 9 8 9
21 19 23 27 15 15 15 17 5 8 11 13 29 34 49 56 48 50 54 55 51 45 38 36 32 28 25 21 18 17 15 12 11 9 8 7 6 6 7 7 8 8 7 9
21 22 26 26 16 15 16 5 7 9 13 26 39 46 56 52 50 50 51 52 49 44 38 39 32 28 24 21 18 18 14 12 10 8 7 4 4 5 6 7 8 7 7 10
24 22 24 28 22 17 14 14 11 11 19 36 46 52 59 52 53 47 49 51 45 41 34 30 29 27 24 19 20 17 14 13 10 7 6 4 5 3 4 6 8 10 10 12
Wind_Direction
264 261 258 257 257 255 251 251 250 248 246 254 248 253 247 244 241 239 242 243 241 241 242 240 240 248 254 255 258 262 269 272 276 278 280 282 284 289 292 292 290 292 296 299
265 262 258 255 253 253 255 255 253 250 248 238 248 247 248 246 244 240 239 241 243 244 242 242 245 250 253 257 258 261 262 271 277 279 278 281 283 287 287 286 287 289 295 297
268 265 263 259 254 250 250 251 251 251 245 244 249 249 247 246 245 244 240 241 243 244 243 242 244 249 255 257 258 260 260 270 274 275 280 281 280 283 283 281 283 290 294 295
281 277 271 266 262 259 254 251 248 247 245 248 245 248 246 244 245 244 244 241 242 246 249 248 250 248 248 252 257 257 260 265 268 274 278 278 277 278 279 278 286 290 292 291
288 282 278 271 270 263 261 258 254 250 245 244 240 245 247 244 245 245 241 243 243 242 245 248 248 251 249 246 254 258 258 258 263 270 273 273 274 269 270 279 286 287 287 287
298 292 291 272 276 267 260 262 262 259 257 250 242 241 242 243 243 241 239 239 242 242 242 245 246 244 240 249 253 252 250 255 261 265 267 267 263 268 274 280 282 285 284 281
276 268 280 275 272 262 264 265 260 257 251 255 252 242 244 236 240 241 240 236 237 238 237 238 240 241 241 242 242 246 250 256 258 259 258 259 264 269 274 277 280 281 276 278
288 271 252 266 265 266 260 242 252 257 257 255 243 247 237 236 219 229 239 240 237 235 233 231 233 238 237 238 239 242 247 253 252 252 252 257 262 269 273 274 276 271 274 277
296 283 259 284 275 272 267 258 270 253 251 252 251 240 235 218 218 220 234 239 236 230 226 227 230 230 229 233 238 243 245 246 245 244 249 257 264 268 273 273 267 270 272 274
290 290 278 276 277 285 253 268 264 247 259 250 255 258 234 236 217 201 204 226 229 226 222 222 224 222 224 230 236 239 239 242 242 244 251 259 265 269 266 262 268 270 273 280
283 287 284 265 281 277 264 295 287 250 252 238 231 211 221 221 225 183 199 206 226 224 221 220 221 221 225 227 226 233 236 238 241 244 252 256 261 260 259 263 265 269 277 279
274 277 289 272 259 268 260 267 272 263 233 228 249 188 166 176 210 188 206 205 220 219 223 220 220 222 219 219 222 230 235 236 237 243 248 250 247 252 258 263 267 274 276 283
293 283 280 272 240 250 260 247 273 257 247 203 225 160 167 142 179 190 204 207 211 207 211 216 217 218 216 218 224 231 226 227 233 240 239 240 249 253 260 263 270 272 278 279
306 280 275 268 240 281 309 316 273 230 233 224 242 250 195 149 152 204 211 201 196 196 179 179 189 205 209 214 215 216 219 225 230 232 235 249 253 257 259 264 267 274 277 280
315 298 258 262 262 262 262 262 262 254 252 258 249 240 253 181 175 179 208 195 200 203 185 177 185 193 198 200 203 207 216 220 225 233 244 246 251 255 256 262 267 278 283 283
318 321 293 277 235 254 264 262 265 257 245 237 253 256 248 240 205 203 198 187 202 197 191 192 184 189 195 200 198 207 213 220 229 238 239 244 249 251 259 262 273 283 284 276
309 292 294 273 252 252 247 253 256 258 253 251 242 248 251 252 237 197 189 190 188 193 193 195 187 191 190 194 201 204 212 222 232 237 238 245 247 259 265 270 280 281 274 266
318 322 291 293 268 280 253 243 237 234 227 237 250 249 230 229 222 180 179 185 184 192 198 197 195 190 192 195 199 204 216 227 235 233 239 244 257 264 269 279 273 270 259 255
314 304 314 304 296 293 288 271 279 268 249 244 230 223 217 220 192 178 181 178 184 187 191 199 189 187 192 195 199 208 219 228 227 229 238 255 259 266 270 249 267 272 252 237
324 325 312 325 313 318 327 330 325 292 239 241 224 207 211 205 182 178 185 175 180 185 185 183 186 185 188 195 199 213 218 222 221 230 245 251 260 265 243 245 256 270 235 222
333 337 322 328 323 332 322 326 314 296 246 232 215 194 201 190 179 178 176 173 177 180 180 180 186 188 189 195 206 215 215 215 216 233 238 248 255 258 246 239 241 238 234 215
334 336 337 322 313 319 307 307 313 292 233 216 201 185 196 184 176 173 176 177 178 179 179 182 187 189 190 200 210 211 212 206 220 225 232 241 248 264 256 235 230 234 231 219
329 321 312 320 304 283 298 300 310 262 226 215 182 178 187 177 173 178 181 181 180 179 182 186 189 188 195 201 208 209 204 208 216 221 233 245 257 261 267 248 222 224 225 215
323 317 319 338 317 288 293 314 256 249 210 204 163 167 178 171 171 183 182 177 180 180 184 184 187 189 194 203 204 205 203 205 212 215 237 249 267 262 258 230 209 207 216 202
325 325 328 335 337 291 288 256 187 199 196 172 158 172 174 173 174 184 179 177 178 179 185 181 184 190 195 202 198 201 201 199 204 208 231 243 247 253 246 227 211 199 204 198
329 334 332 335 338 326 341 185 191 205 193 163 158 172 173 173 180 179 176 176 178 179 183 181 186 191 197 198 195 195 200 195 194 207 215 208 220 236 231 217 217 196 192 178
Height
5700 5701 5699 5697 5697 5704 5702 5703 5707 5714 5720 5717 5719 5722 5735 5743 5746 5751 5754 5759 5765 5771 5777 5779 5779 5776 5782 5794 5799 5801 5800 5801 5799 5800 5800 5799 5798 5798 5797 5796 5795 5794 5793 5791
5687 5684 5683 5683 5685 5686 5685 5686 5694 5697 5703 5697 5704 5705 5719 5726 5731 5738 5742 5746 5751 5758 5765 5768 5770 5769 5777 5785 5788 5790 5793 5791 5791 5791 5794 5792 5791 5791 5789 5788 5788 5787 5786 5784
5671 5670 5667 5667 5669 5671 5671 5671 5676 5676 5679 5680 5687 5689 5702 5710 5716 5724 5730 5735 5738 5742 5749 5754 5759 5767 5772 5773 5777 5781 5782 5785 5784 5785 5785 5785 5783 5781 5781 5780 5781 5781 5779 5776
5656 5653 5650 5650 5652 5651 5651 5653 5654 5657 5659 5664 5676 5668 5684 5696 5701 5709 5716 5723 5727 5731 5738 5748 5753 5758 5761 5764 5767 5767 5773 5778 5777 5778 5776 5776 5775 5773 5773 5773 5774 5774 5772 5770
5642 5637 5635 5633 5635 5635 5635 5635 5635 5638 5640 5643 5650 5655 5671 5683 5687 5696 5704 5708 5716 5722 5728 5736 5743 5745 5748 5752 5756 5758 5764 5767 5771 5770 5769 5768 5767 5765 5766 5766 5767 5766 5765 5764
5627 5625 5623 5621 5620 5620 5623 5621 5624 5625 5626 5623 5636 5639 5650 5665 5673 5683 5688 5695 5702 5713 5720 5725 5730 5734 5738 5744 5745 5750 5755 5758 5761 5761 5761 5760 5759 5758 5759 5760 5760 5760 5759 5759
5622 5622 5618 5611 5613 5613 5613 5613 5613 5615 5616 5611 5624 5624 5629 5652 5657 5666 5673 5681 5692 5699 5708 5716 5720 5724 5728 5733 5737 5742 5746 5749 5751 5753 5752 5752 5752 5752 5752 5754 5754 5754 5754 5753
5613 5613 5612 5608 5608 5606 5605 5607 5609 5606 5608 5612 5613 5606 5615 5635 5648 5653 5658 5674 5684 5692 5699 5705 5710 5714 5721 5725 5730 5734 5737 5740 5743 5744 5744 5745 5746 5746 5747 5747 5748 5748 5748 5747
5607 5605 5603 5604 5602 5602 5602 5601 5603 5599 5599 5596 5597 5599 5605 5620 5633 5643 5653 5665 5675 5680 5688 5695 5700 5708 5713 5717 5722 5726 5730 5733 5734 5736 5738 5739 5740 5740 5741 5741 5741 5742 5742 5742
5603 5597 5597 5600 5598 5597 5596 5597 5592 5593 5592 5592 5595 5600 5604 5610 5621 5637 5645 5653 5664 5672 5678 5682 5690 5698 5705 5709 5715 5719 5723 5725 5727 5729 5731 5732 5733 5734 5735 5735 5736 5736 5736 5735
5597 5593 5592 5591 5594 5593 5594 5593 5590 5588 5587 5590 5590 5592 5598 5612 5615 5628 5638 5644 5654 5663 5668 5676 5684 5693 5697 5703 5708 5712 5715 5718 5720 5723 5725 5727 5728 5728 5729 5731 5731 5731 5730 5730
5589 5586 5585 5585 5589 5589 5588 5587 5586 5583 5586 5586 5588 5586 5594 5595 5610 5621 5624 5635 5647 5656 5663 5670 5678 5684 5690 5696 5701 5704 5708 5711 5715 5718 5720 5722 5723 5723 5725 5725 5726 5726 5726 5725
5584 5583 5580 5581 5586 5584 5582 5582 5581 5579 5579 5578 5578 5581 5591 5596 5606 5612 5615 5626 5637 5649 5654 5662 5669 5676 5683 5689 5694 5698 5702 5707 5711 5712 5714 5716 5718 5719 5719 5721 5721 5721 5721 5720
5580 5579 5577 5576 5576 5572 5577 5578 5578 5577 5575 5572 5574 5578 5574 5576 5590 5613 5613 5619 5632 5642 5650 5657 5663 5670 5678 5683 5689 5694 5699 5703 5705 5708 5710 5711 5713 5714 5715 5716 5717 5717 5716 5715
5577 5575 5572 5571 5570 5571 5573 5576 5577 5576 5573 5566 5568 5571 5577 5578 5588 5586 5597 5610 5622 5635 5645 5652 5659 5666 5673 5679 5684 5690 5694 5698 5701 5703 5705 5707 5709 5710 5712 5712 5713 5712 5711 5710
5577 5573 5570 5567 5566 5567 5568 5573 5573 5573 5570 5560 5564 5565 5571 5572 5577 5582 5592 5601 5615 5629 5639 5648 5656 5664 5670 5676 5682 5686 5690 5694 5696 5699 5702 5704 5706 5707 5708 5708 5708 5707 5706 5706
5574 5571 5568 5567 5565 5565 5566 5569 5569 5569 5569 5563 5560 5566 5569 5572 5574 5582 5591 5601 5613 5627 5636 5644 5653 5661 5668 5673 5678 5683 5687 5690 5694 5697 5699 5701 5703 5703 5704 5704 5703 5702 5702 5701
5572 5568 5565 5563 5560 5559 5561 5559 5557 5557 5558 5557 5556 5559 5559 5562 5567 5578 5589 5598 5611 5623 5633 5644 5651 5659 5665 5671 5676 5681 5684 5688 5691 5693 5696 5697 5699 5699 5700 5700 5700 5700 5699 5698
5570 5566 5562 5559 5556 5555 5553 5551 5550 5549 5551 5551 5551 5551 5553 5560 5568 5577 5587 5597 5608 5621 5631 5642 5649 5656 5664 5669 5675 5679 5682 5686 5688 5690 5693 5694 5695 5696 5697 5698 5698 5697 5696 5696
5568 5564 5561 5557 5554 5550 5548 5547 5545 5543 5544 5542 5543 5547 5553 5560 5568 5579 5587 5594 5606 5618 5629 5640 5648 5655 5661 5667 5673 5676 5680 5683 5686 5688 5690 5692 5693 5693 5694 5695 5696 5695 5694 5694
5567 5563 5559 5555 5551 5549 5545 5541 5539 5538 5541 5537 5538 5543 5548 5559 5566 5570 5581 5597 5609 5619 5631 5640 5646 5654 5660 5666 5670 5674 5678 5681 5684 5686 5688 5690 5691 5691 5692 5693 5693 5694 5693 5693
5565 5561 5557 5553 5550 5548 5543 5539 5536 5532 5531 5532 5535 5540 5549 5558 5566 5580 5590 5599 5610 5621 5631 5641 5645 5653 5659 5665 5669 5673 5675 5679 5682 5684 5687 5688 5689 5689 5690 5690 5691 5691 5691 5691
5565 5560 5555 5550 5545 5541 5537 5533 5530 5528 5527 5529 5533 5539 5551 5559 5568 5578 5589 5600 5611 5622 5631 5638 5645 5653 5659 5664 5668 5671 5674 5677 5681 5683 5685 5686 5687 5688 5688 5688 5689 5689 5689 5690
5562 5556 5551 5545 5540 5536 5533 5529 5525 5525 5525 5526 5532 5541 5554 5563 5572 5581 5589 5602 5613 5623 5632 5636 5646 5652 5658 5663 5666 5670 5673 5676 5679 5682 5683 5684 5685 5686 5686 5687 5687 5688 5688 5689
5557 5553 5547 5541 5535 5531 5528 5525 5523 5523 5523 5526 5534 5546 5555 5565 5573 5582 5592 5605 5615 5624 5629 5637 5646 5652 5657 5661 5665 5669 5673 5675 5678 5680 5682 5683 5683 5684 5684 5685 5685 5686 5687 5689
5554 5549 5544 5537 5531 5525 5522 5521 5522 5523 5523 5528 5538 5551 5559 5568 5576 5585 5598 5608 5618 5625 5629 5638 5646 5653 5657 5661 5664 5668 5672 5675 5677 5679 5681 5681 5682 5683 5683 5683 5684 5685 5686 5689